This is the latest recevied weather packets stored in our database for station/object WP3OF. If no packets are shown the sender has not sent any weather packets the latest 10 day(s).
| Time | Temp. | Humidity | Pressure | Rain* | Wind** | Luminosity | Snow |
|---|---|---|---|---|---|---|---|
| 1778186134 | 26.67° C | 79% | 1017.5 hPa | 0 mm | - | - | - |
| 1778185832 | 26.67° C | 79% | 1017.7 hPa | 0 mm | - | - | - |
| 1778185527 | 26.67° C | 79% | 1017.6 hPa | 0 mm | - | - | - |
| 1778185224 | 26.67° C | 75% | 1017.7 hPa | 0 mm | - | - | - |
| 1778184919 | 26.67° C | 76% | 1017.6 hPa | 0 mm | - | - | - |
| 1778184616 | 27.22° C | 72% | 1017.7 hPa | 0 mm | - | - | - |
| 1778184311 | 27.22° C | 76% | 1017.8 hPa | 0 mm | - | - | - |
| 1778184007 | 27.22° C | 75% | 1017.7 hPa | 0 mm | - | - | - |
| 1778183705 | 26.67° C | 77% | 1017.7 hPa | 0 mm | - | - | - |
| 1778183403 | 27.22° C | 76% | 1017.9 hPa | 0 mm | - | - | - |
| 1778183098 | 27.22° C | 76% | 1017.6 hPa | 0 mm | - | - | - |
| 1778182794 | 27.78° C | 76% | 1018 hPa | 0 mm | - | - | - |
| 1778182492 | 27.22° C | 76% | 1017.9 hPa | 0 mm | - | - | - |
| 1778182188 | 27.22° C | 75% | 1018.1 hPa | 0 mm | - | - | - |
| 1778181884 | 27.78° C | 75% | 1017.8 hPa | 0 mm | - | - | - |
| 1778181582 | 27.78° C | 74% | 1017.7 hPa | 0 mm | - | - | - |
| 1778181277 | 27.78° C | 71% | 1017.9 hPa | 0 mm | - | - | - |
| 1778180974 | 27.78° C | 72% | 1018.1 hPa | 0 mm | - | - | - |
| 1778180672 | 27.22° C | 74% | 1018.1 hPa | 0 mm | - | - | - |
| 1778180371 | 28.33° C | 73% | 1017.9 hPa | 0 mm | - | - | - |
| 1778180068 | 28.33° C | 73% | 1017.7 hPa | 0 mm | - | - | - |
| 1778179764 | 27.78° C | 73% | 1017.9 hPa | 0 mm | - | - | - |
| 1778179462 | 27.78° C | 73% | 1018.1 hPa | 0 mm | - | - | - |
| 1778179160 | 27.78° C | 73% | 1018 hPa | 0 mm | - | - | - |
| 1778178856 | 27.22° C | 74% | 1018.3 hPa | 0 mm | - | - | - |
* Rain latest hour (hover to see other rain measurements)
** Current wind speed in m/s (hover to see current wind gust speed)